This is the latest recevied weather packets stored in our database for station/object HI3LT-13. If no packets are shown the sender has not sent any weather packets the latest 10 day(s).
| Time | Temp. | Humidity | Pressure | Rain* | Wind** | Luminosity | Snow |
|---|---|---|---|---|---|---|---|
| 1788378963 | 34.44° C | 49% | 1013 hPa | 0 mm | - | - | - |
| 1788378362 | 34.44° C | 51% | 1013 hPa | 0 mm | - | - | - |
| 1788377761 | 33.89° C | 56% | 1013 hPa | 0 mm | - | - | - |
| 1788377161 | 35.56° C | 53% | 1013 hPa | 0 mm | - | - | - |
| 1788376560 | 35.56° C | 54% | 1013 hPa | 0 mm | - | - | - |
| 1788375959 | 35.56° C | 54% | 1013 hPa | 0 mm | - | - | - |
| 1788375359 | 35.56° C | 56% | 1013 hPa | 0 mm | - | - | - |
| 1788374758 | 35.56° C | 57% | 1014 hPa | 0 mm | - | - | - |
| 1788374157 | 36.11° C | 54% | 1014 hPa | 0 mm | - | - | - |
| 1788373556 | 35.56° C | 58% | 1014 hPa | 0 mm | - | - | - |
| 1788372956 | 35.56° C | 59% | 1014 hPa | 0 mm | - | - | - |
| 1788372355 | 35.56° C | 60% | 1014 hPa | 0 mm | - | - | - |
| 1788371754 | 35.56° C | 60% | 1014 hPa | 0 mm | - | - | - |
| 1788371154 | 35.56° C | 61% | 1014 hPa | 0 mm | - | - | - |
| 1788370553 | 35.56° C | 62% | 1014 hPa | 0 mm | - | - | - |
| 1788369952 | 35.56° C | 64% | 1015 hPa | 0 mm | - | - | - |
| 1788369351 | 36.11° C | 64% | 1015 hPa | 0 mm | - | - | - |
| 1788368750 | 36.11° C | 66% | 1015 hPa | 0 mm | - | - | - |
| 1788368150 | 35° C | 66% | 1015 hPa | 0 mm | - | - | - |
| 1788367549 | 34.44° C | 68% | 1015 hPa | 0 mm | - | - | - |
| 1788366948 | 35° C | 68% | 1015 hPa | 0 mm | - | - | - |
| 1788366347 | 35° C | 68% | 1016 hPa | 0 mm | - | - | - |
| 1788365747 | 35° C | 68% | 1016 hPa | 0 mm | - | - | - |
| 1788365146 | 35° C | 66% | 1016 hPa | 0 mm | - | - | - |
| 1788364545 | 33.89° C | 66% | 1016 hPa | 0 mm | - | - | - |
* Rain latest hour (hover to see other rain measurements)
** Current wind speed in m/s (hover to see current wind gust speed)